Weather History for K9V9 - January, 2014

Change the Weather History Date:

Friday, January 10, 2014

  Actual Average (KICR) Record (KICR)
Temperature  
Mean Temperature 34 °F 25 °F  
Max Temperature 43 °F 36 °F - ()
Min Temperature 26 °F 14 °F - ()
Degree Days  
Heating Degree Days 30 40  
Month to date heating degree days 405  
Since 1 July heating degree days 3111  
Cooling Degree Days 0 0  
Month to date cooling degree days 0  
Year to date cooling degree days 0  
Moisture  
Dew Point 24 °F    
Average Humidity 72    
Maximum Humidity 85    
Minimum Humidity 55    
Precipitation  
Precipitation 0.00 in 0.00 in - ()
Month to date precipitation 0.07  
Year to date precipitation 0.07  
Sea Level Pressure  
Sea Level Pressure 29.62 in    
Wind  
Wind Speed 8 mph (West)    
Max Wind Speed 14 mph    
Max Gust Speed -    
T = Trace of Precipitation, MM = Missing Value Source: NWS Daily Summary

Daily Weather History Graph

Daily Weather History Graph

Search for Another Location

Airport or City:

Trip Planner

Search our weather history database for the weather conditions in past years. The results will help you decide how hot, cold, wet, or windy it might be!

Date:

Astronomy

Jan. 10, 2014 Rise Set
Actual Time 8:10 AM CST 5:20 PM CST
Civil Twilight 7:37 AM CST 5:52 PM CST
Nautical Twilight 7:02 AM CST 6:28 PM CST
Astronomical Twilight 6:27 AM CST 7:02 PM CST
Moon 1:27 PM CST (1/10) 3:16 AM CST (1/10)
Length of Visible Light 10h 14m
Length of Day
9h 09m
Waxing Gibbous, 75% of the Moon is Illuminated
Jan 10
Waxing Gibbous
Jan 15
Full
Jan 23
Last Quarter
Jan 30
New
Feb 6
First Quarter

Hourly Weather History & Observations

Time (CST) Temp. Windchill Dew Point Humidity Pressure Visibility Wind Dir Wind Speed Gust Speed Precip Events Conditions
12:52 AM 30.9 °F 21.2 °F 24.1 °F 76% 29.64 in - SW 12.7 mph - N/A   Unknown
1:52 AM 30.9 °F 24.3 °F 25.0 °F 79% 29.63 in - SW 6.9 mph - N/A   Unknown
2:52 AM 30.9 °F 26.2 °F 24.1 °F 76% 29.63 in - SSW 4.6 mph - N/A   Unknown
3:52 AM 26.1 °F 20.5 °F 21.9 °F 84% 29.62 in - South 4.6 mph - N/A   Unknown
4:52 AM 27.0 °F 20.5 °F 23.0 °F 85% 29.60 in - WSW 5.8 mph - N/A   Unknown
5:52 AM 28.0 °F 22.8 °F 24.1 °F 85% 29.60 in - SSW 4.6 mph - N/A   Unknown
6:52 AM 28.9 °F 22.8 °F 25.0 °F 85% 29.61 in - WNW 5.8 mph - N/A   Unknown
7:52 AM 28.0 °F 21.7 °F 24.1 °F 85% 29.60 in - WNW 5.8 mph - N/A   Unknown
8:52 AM 27.0 °F 23.0 °F 23.0 °F 85% 29.62 in - West 3.5 mph - N/A   Unknown
9:52 AM 30.0 °F 23.2 °F 25.0 °F 82% 29.63 in - WNW 6.9 mph - N/A   Unknown
10:52 AM 32.0 °F 25.6 °F 24.1 °F 73% 29.64 in - NW 6.9 mph - N/A   Unknown
11:52 AM 36.0 °F 30.3 °F 25.0 °F 64% 29.62 in - NW 6.9 mph - N/A   Unknown
12:52 PM 39.9 °F 33.9 °F 27.0 °F 60% 29.59 in - NNW 9.2 mph - N/A   Unknown
1:52 PM 43.0 °F 37.7 °F 28.9 °F 58% 29.57 in - WNW 9.2 mph - N/A   Unknown
2:52 PM 41.0 °F 33.5 °F 27.0 °F 57% 29.58 in - NW 13.8 mph - N/A   Unknown
3:52 PM 41.0 °F 36.4 °F 26.1 °F 55% 29.60 in - NNW 6.9 mph - N/A   Unknown
4:52 PM 37.9 °F 33.5 °F 25.0 °F 60% 29.61 in - NW 5.8 mph - N/A   Unknown
5:52 PM 35.1 °F - 24.1 °F 64% 29.62 in - Calm Calm - N/A   Unknown
6:52 PM 30.9 °F 22.2 °F 23.0 °F 72% 29.63 in - West 10.4 mph - N/A   Unknown
7:52 PM 30.0 °F 21.1 °F 21.9 °F 72% 29.65 in - WNW 10.4 mph - N/A   Unknown
8:52 PM 30.9 °F 22.2 °F 21.9 °F 69% 29.64 in - West 10.4 mph - N/A   Unknown
9:52 PM 32.0 °F 25.6 °F 23.0 °F 69% 29.64 in - WNW 6.9 mph - N/A   Unknown
10:52 PM 32.0 °F 24.2 °F 23.0 °F 69% 29.64 in - West 9.2 mph - N/A   Unknown
11:52 PM 30.9 °F 23.5 °F 23.0 °F 72% 29.64 in - WNW 8.1 mph - N/A   Unknown